This is the latest recevied weather packets stored in our database for station/object KA1JKB. If no packets are shown the sender has not sent any weather packets the latest 10 day(s).
| Time | Temp. | Humidity | Pressure | Rain* | Wind** | Luminosity | Snow |
|---|---|---|---|---|---|---|---|
| 1788180452 | 22.22° C | 93% | 1014.6 hPa | 0 mm | - | 37 W/m² | - |
| 1788180149 | 22.22° C | 93% | 1014.7 hPa | 0 mm | - | 39 W/m² | - |
| 1788179848 | 22.78° C | 93% | 1014.6 hPa | 0 mm | - | 45 W/m² | - |
| 1788179548 | 22.22° C | 93% | 1014.8 hPa | 0 mm | - | 71 W/m² | - |
| 1788179247 | 22.22° C | 94% | 1014.4 hPa | 0 mm | - | 67 W/m² | - |
| 1788178943 | 22.22° C | 94% | 1014.3 hPa | 0 mm | - | 89 W/m² | - |
| 1788178642 | 22.22° C | 94% | 1014.2 hPa | 0 mm | - | 83 W/m² | - |
| 1788178339 | 21.67° C | 95% | 1014.4 hPa | 0 mm | - | 71 W/m² | - |
| 1788178034 | 21.67° C | 95% | 1014.6 hPa | 0 mm | - | 54 W/m² | - |
| 1788177729 | 21.67° C | 96% | 1014.6 hPa | 0 mm | - | 52 W/m² | - |
| 1788177425 | 21.11° C | 97% | 1014.3 hPa | 0 mm | - | 46 W/m² | - |
| 1788177120 | 21.11° C | 97% | 1014.2 hPa | 0 mm | - | 38 W/m² | - |
| 1788176820 | 21.11° C | 98% | 1014.2 hPa | 0 mm | - | 38 W/m² | - |
| 1788176519 | 20.56° C | 97% | 1014.2 hPa | 0 mm | - | 29 W/m² | - |
| 1788176214 | 20.56° C | 97% | 1014.4 hPa | 0 mm | - | 21 W/m² | - |
| 1788175909 | 20.56° C | 97% | 1014.4 hPa | 0 mm | - | 15 W/m² | - |
| 1788175608 | 20.56° C | 97% | 1014.7 hPa | 0 mm | - | 10 W/m² | - |
| 1788175303 | 20.56° C | 96% | 1014.2 hPa | 0 mm | - | 7 W/m² | - |
| 1788174999 | 21.11° C | 96% | 1014.6 hPa | 0 mm | - | 5 W/m² | - |
| 1788174695 | 21.11° C | 96% | 1014.3 hPa | 0 mm | - | 2 W/m² | - |
| 1788174391 | 21.11° C | 96% | 1014.3 hPa | 0 mm | - | 0 W/m² | - |
| 1788174086 | 21.11° C | 96% | 1014.4 hPa | 0 mm | - | 0 W/m² | - |
| 1788173785 | 21.11° C | 95% | 1014.2 hPa | 0 mm | - | 0 W/m² | - |
| 1788173480 | 21.11° C | 95% | 1014.4 hPa | 0 mm | - | 0 W/m² | - |
| 1788173176 | 21.11° C | 96% | 1014.3 hPa | 0 mm | - | 0 W/m² | - |
* Rain latest hour (hover to see other rain measurements)
** Current wind speed in m/s (hover to see current wind gust speed)